• Em Portugal
  • Lista de países
  • Para 7 dias
  • Temperatura da água
  • Mapas de satélite
  • Mapa do tempo
  • Widgets de tempo
  • user-avatar
    Iniciar Sessão

    Previsão horária em Yangon

    Hoje, 11 Dezembro, Segunda-feira

    Tempo Temperatura Precipitação Vento Pressão Humidade
    00:00 +27°C° 0 mm 2 m/s 759 mmHg 79%
    01:00 +27°C° 0 mm 2 m/s 759 mmHg 80%
    02:00 +26°C° 0 mm 2 m/s 759 mmHg 82%
    03:00 +26°C° 0 mm 2 m/s 758 mmHg 83%
    04:00 +26°C° 0 mm 2 m/s 759 mmHg 84%
    05:00 +26°C° 0 mm 2 m/s 759 mmHg 85%
    06:00 +26°C° 0 mm 2 m/s 759 mmHg 86%
    07:00 +27°C° 0 mm 2 m/s 759 mmHg 79%
    08:00 +29°C° 0 mm 2 m/s 759 mmHg 73%
    09:00 +31°C° 0 mm 3 m/s 759 mmHg 66%
    10:00 +32°C° 0 mm 2 m/s 759 mmHg 61%
    11:00 +34°C° 0 mm 2 m/s 759 mmHg 56%
    12:00 +35°C° 0 mm 2 m/s 758 mmHg 50%
    13:00 +35°C° 0 mm 2 m/s 758 mmHg 51%
    14:00 +35°C° 0 mm 3 m/s 757 mmHg 52%
    15:00 +35°C° 0 mm 3 m/s 757 mmHg 52%
    16:00 +34°C° 0 mm 3 m/s 757 mmHg 60%
    17:00 +31°C° 0 mm 3 m/s 757 mmHg 67%
    18:00 +29°C° 0 mm 3 m/s 757 mmHg 74%
    19:00 +29°C° 0 mm 4 m/s 758 mmHg 77%
    20:00 +28°C° 0 mm 4 m/s 758 mmHg 80%
    21:00 +28°C° 0 mm 4 m/s 759 mmHg 84%
    22:00 +27°C° 0 mm 4 m/s 759 mmHg 85%
    23:00 +27°C° 0 mm 4 m/s 759 mmHg 87%

    Amanhã, 12 Dezembro, Terça-feira

    Tempo Temperatura Precipitação Vento Pressão Humidade
    00:00 +26°C° 0 mm 4 m/s 759 mmHg 89%
    01:00 +26°C° 0 mm 4 m/s 758 mmHg 90%
    02:00 +26°C° 0 mm 3 m/s 758 mmHg 91%
    03:00 +26°C° 0 mm 3 m/s 758 mmHg 92%
    04:00 +26°C° 0 mm 3 m/s 758 mmHg 93%
    05:00 +25°C° 0 mm 3 m/s 758 mmHg 93%
    06:00 +25°C° 0 mm 3 m/s 758 mmHg 93%
    07:00 +27°C° 0 mm 3 m/s 759 mmHg 84%
    08:00 +29°C° 0 mm 3 m/s 759 mmHg 76%
    09:00 +31°C° 0 mm 3 m/s 760 mmHg 67%
    10:00 +33°C° 0 mm 3 m/s 759 mmHg 61%
    11:00 +34°C° 0 mm 2 m/s 759 mmHg 55%
    12:00 +35°C° 0 mm 2 m/s 758 mmHg 49%
    13:00 +35°C° 0 mm 2 m/s 757 mmHg 49%
    14:00 +35°C° 0 mm 3 m/s 757 mmHg 48%
    15:00 +35°C° 0 mm 3 m/s 756 mmHg 47%
    16:00 +34°C° 0 mm 3 m/s 756 mmHg 53%
    17:00 +31°C° 0 mm 3 m/s 756 mmHg 59%
    18:00 +30°C° 0 mm 3 m/s 756 mmHg 65%
    19:00 +29°C° 0 mm 3 m/s 757 mmHg 70%
    20:00 +28°C° 0 mm 4 m/s 757 mmHg 75%
    21:00 +27°C° 0 mm 4 m/s 758 mmHg 79%
    22:00 +27°C° 0 mm 4 m/s 758 mmHg 82%
    23:00 +27°C° 0 mm 3 m/s 758 mmHg 85%

    Depois de amanhã, 13 Dezembro, Quarta-feira

    Tempo Temperatura Precipitação Vento Pressão Humidade
    00:00 +26°C° 0 mm 3 m/s 758 mmHg 88%
    01:00 +26°C° 0 mm 3 m/s 757 mmHg 90%
    02:00 +26°C° 0 mm 3 m/s 757 mmHg 92%
    03:00 +25°C° 0 mm 3 m/s 757 mmHg 94%
    04:00 +25°C° 0 mm 2 m/s 757 mmHg 94%
    05:00 +25°C° 0 mm 2 m/s 757 mmHg 95%
    06:00 +25°C° 0 mm 2 m/s 758 mmHg 95%
    07:00 +27°C° 0 mm 2 m/s 758 mmHg 87%
    08:00 +28°C° 0 mm 2 m/s 759 mmHg 78%
    09:00 +30°C° 0 mm 2 m/s 759 mmHg 70%
    10:00 +31°C° 0 mm 1 m/s 759 mmHg 64%
    11:00 +33°C° 0 mm 1 m/s 758 mmHg 58%
    12:00 +34°C° 0 mm 1 m/s 758 mmHg 52%
    13:00 +35°C° 0 mm 2 m/s 757 mmHg 52%
    14:00 +35°C° 0 mm 2 m/s 756 mmHg 53%
    15:00 +34°C° 0 mm 2 m/s 756 mmHg 54%
    16:00 +32°C° 0 mm 2 m/s 756 mmHg 60%
    17:00 +31°C° 0 mm 2 m/s 756 mmHg 65%
    18:00 +30°C° 0 mm 2 m/s 757 mmHg 71%
    19:00 +29°C° 0 mm 2 m/s 757 mmHg 74%
    20:00 +28°C° 0 mm 2 m/s 757 mmHg 77%
    21:00 +28°C° 0 mm 2 m/s 758 mmHg 80%
    22:00 +27°C° 0 mm 2 m/s 758 mmHg 82%
    23:00 +27°C° 0 mm 2 m/s 758 mmHg 83%

    14 Dezembro, Quinta-feira

    Tempo Temperatura Precipitação Vento Pressão Humidade
    00:00 +27°C° 0 mm 2 m/s 757 mmHg 84%
    01:00 +26°C° 0 mm 2 m/s 757 mmHg 85%
    02:00 +26°C° 0 mm 2 m/s 757 mmHg 85%
    03:00 +26°C° 0 mm 2 m/s 756 mmHg 85%
    04:00 +26°C° 0 mm 2 m/s 757 mmHg 86%
    05:00 +25°C° 0 mm 2 m/s 757 mmHg 86%
    06:00 +25°C° 0 mm 2 m/s 758 mmHg 86%
    07:00 +27°C° 0 mm 2 m/s 758 mmHg 80%
    08:00 +29°C° 0 mm 2 m/s 759 mmHg 73%
    09:00 +31°C° 0 mm 3 m/s 759 mmHg 66%
    10:00 +32°C° 0 mm 2 m/s 759 mmHg 62%
    11:00 +34°C° 0 mm 2 m/s 758 mmHg 57%
    12:00 +35°C° 0 mm 2 m/s 758 mmHg 53%
    13:00 +35°C° 0 mm 2 m/s 757 mmHg 53%
    14:00 +35°C° 0 mm 2 m/s 757 mmHg 53%
    15:00 +35°C° 0 mm 2 m/s 756 mmHg 53%
    16:00 +32°C° 0 mm 2 m/s 756 mmHg 58%
    17:00 +31°C° 0 mm 2 m/s 757 mmHg 63%
    18:00 +29°C° 0 mm 2 m/s 757 mmHg 68%
    19:00 +29°C° 0 mm 2 m/s 757 mmHg 70%
    20:00 +28°C° 0 mm 2 m/s 758 mmHg 72%
    21:00 +28°C° 0 mm 2 m/s 758 mmHg 73%
    22:00 +27°C° 0 mm 2 m/s 758 mmHg 74%
    23:00 +27°C° 0 mm 2 m/s 758 mmHg 75%

    15 Dezembro, Sexta-feira

    Tempo Temperatura Precipitação Vento Pressão Humidade
    00:00 +26°C° 0 mm 2 m/s 758 mmHg 76%
    01:00 +26°C° 0 mm 2 m/s 757 mmHg 77%
    02:00 +25°C° 0 mm 2 m/s 757 mmHg 78%
    03:00 +25°C° 0 mm 2 m/s 757 mmHg 79%
    04:00 +25°C° 0 mm 2 m/s 757 mmHg 79%
    05:00 +24°C° 0 mm 3 m/s 758 mmHg 79%
    06:00 +24°C° 0 mm 3 m/s 758 mmHg 79%
    07:00 +26°C° 0 mm 3 m/s 758 mmHg 71%
    08:00 +28°C° 0 mm 3 m/s 759 mmHg 63%
    09:00 +30°C° 0 mm 3 m/s 759 mmHg 54%
    10:00 +31°C° 0 mm 3 m/s 759 mmHg 50%
    11:00 +33°C° 0 mm 3 m/s 758 mmHg 46%
    12:00 +35°C° 0 mm 3 m/s 758 mmHg 42%
    13:00 +35°C° 0 mm 2 m/s 757 mmHg 42%
    14:00 +35°C° 0 mm 2 m/s 756 mmHg 42%
    15:00 +35°C° 0 mm 2 m/s 756 mmHg 42%
    16:00 +32°C° 0 mm 2 m/s 756 mmHg 47%
    17:00 +31°C° 0 mm 2 m/s 757 mmHg 52%
    18:00 +29°C° 0 mm 2 m/s 757 mmHg 57%
    19:00 +28°C° 0 mm 2 m/s 758 mmHg 58%
    20:00 +28°C° 0 mm 2 m/s 758 mmHg 59%
    21:00 +27°C° 0 mm 2 m/s 759 mmHg 59%
    22:00 +26°C° 0 mm 2 m/s 759 mmHg 61%
    23:00 +26°C° 0 mm 3 m/s 759 mmHg 63%

    16 Dezembro, Sábado

    Tempo Temperatura Precipitação Vento Pressão Humidade
    00:00 +25°C° 0 mm 3 m/s 758 mmHg 65%
    01:00 +25°C° 0 mm 3 m/s 758 mmHg 67%
    02:00 +24°C° 0 mm 3 m/s 758 mmHg 69%
    03:00 +24°C° 0 mm 3 m/s 758 mmHg 71%
    04:00 +24°C° 0 mm 3 m/s 758 mmHg 72%
    05:00 +24°C° 0 mm 3 m/s 758 mmHg 73%
    06:00 +22°C° 0 mm 3 m/s 759 mmHg 74%
    07:00 +25°C° 0 mm 3 m/s 759 mmHg 67%
    08:00 +27°C° 0 mm 3 m/s 760 mmHg 60%
    09:00 +29°C° 0 mm 4 m/s 760 mmHg 53%
    10:00 +31°C° 0 mm 3 m/s 759 mmHg 49%
    11:00 +33°C° 0 mm 3 m/s 759 mmHg 45%
    12:00 +35°C° 0 mm 2 m/s 758 mmHg 41%
    13:00 +35°C° 0 mm 2 m/s 758 mmHg 41%
    14:00 +35°C° 0 mm 2 m/s 757 mmHg 41%
    15:00 +35°C° 0 mm 2 m/s 757 mmHg 41%
    16:00 +32°C° 0 mm 2 m/s 757 mmHg 47%
    17:00 +31°C° 0 mm 2 m/s 757 mmHg 53%
    18:00 +29°C° 0 mm 1 m/s 758 mmHg 59%
    19:00 +28°C° 0 mm 2 m/s 758 mmHg 60%
    20:00 +27°C° 0 mm 2 m/s 759 mmHg 61%
    21:00 +27°C° 0 mm 2 m/s 759 mmHg 62%
    22:00 +26°C° 0 mm 2 m/s 759 mmHg 62%
    23:00 +26°C° 0 mm 2 m/s 759 mmHg 62%
    Mostrar mais